Wind_Speed
23 27 24 22 26 30 28 28 26 26 26 26 28 28 25 24 32 26 28 27 31 33 36 37 33 32 41 41 41 46 50 55 61 62 59 61 65 64 66 69 70 74 86 93
26 23 26 24 20 20 23 23 22 24 27 25 23 27 32 33 27 27 31 24 28 32 32 32 34 37 37 38 45 51 50 51 56 59 62 65 67 71 72 71 73 86 88 84
26 26 23 23 25 23 21 22 22 24 25 28 28 30 32 31 36 35 35 32 32 33 34 33 33 38 42 48 53 57 57 60 67 66 70 71 73 75 74 73 82 82 87 85
27 27 25 26 29 33 30 26 28 28 26 29 31 33 38 34 31 33 33 32 34 35 34 34 36 41 47 51 55 62 64 64 72 74 70 70 71 76 79 82 88 91 92 82
28 28 28 24 28 33 32 31 30 29 28 32 30 19 28 33 30 35 35 38 39 39 39 43 47 50 55 55 58 62 64 66 70 70 74 76 77 80 85 91 93 91 92 91
29 28 27 24 29 33 34 33 34 34 30 27 39 32 32 39 44 45 45 46 46 44 45 50 52 55 58 59 62 66 66 74 75 78 79 79 81 85 92 98 96 102 99 98
28 31 31 27 28 28 29 33 33 30 32 34 37 34 40 45 46 47 49 51 53 49 52 53 52 54 55 59 64 70 73 77 80 83 84 81 83 90 96 100 105 107 101 103
29 31 34 30 32 30 28 31 34 32 33 34 39 34 40 43 47 49 50 50 50 51 53 53 53 57 61 66 71 76 80 80 87 87 85 85 92 97 99 106 109 102 100 108
31 36 38 36 36 34 35 37 38 36 36 36 34 36 38 44 52 53 54 53 51 53 53 53 62 67 71 75 77 81 82 85 89 90 87 89 93 100 103 112 105 106 110 109
36 32 38 39 41 43 40 40 40 40 42 39 38 40 41 46 51 53 56 57 55 57 60 63 66 68 72 78 84 84 85 89 95 90 88 93 102 106 112 110 107 108 113 119
40 41 44 45 41 45 45 42 46 46 46 44 40 31 40 51 54 56 57 59 60 64 71 72 74 74 79 82 89 88 88 91 92 88 92 103 111 110 114 112 109 115 119 121
49 50 47 51 54 52 56 56 59 51 51 47 46 34 50 57 59 63 62 66 68 74 77 79 81 81 85 90 92 90 85 94 95 95 105 111 114 113 112 117 118 123 125 122
57 54 51 49 58 59 59 61 64 69 57 60 60 52 64 64 73 78 75 77 81 84 85 85 85 89 93 99 96 90 94 101 102 111 113 116 118 115 116 120 126 124 129 123
66 59 58 54 60 61 63 63 69 71 62 67 66 67 69 74 79 81 86 84 85 87 91 93 95 98 102 100 94 98 102 104 109 110 119 118 113 117 119 123 127 129 125 117
72 65 65 64 62 66 69 70 81 72 69 74 67 75 72 77 88 86 91 95 97 99 102 103 102 102 101 101 103 104 107 116 115 122 124 121 116 122 122 122 126 127 121 116
74 73 72 69 66 72 73 77 83 71 83 81 81 77 82 90 81 87 98 97 102 104 104 108 103 101 103 105 106 113 121 125 127 122 122 123 123 119 124 125 127 125 115 115
72 76 78 74 75 84 86 75 80 86 85 86 92 82 89 89 89 92 98 106 107 112 112 109 105 104 106 110 117 122 127 130 126 126 123 124 120 124 123 121 125 120 115 107
72 78 81 86 92 95 83 85 90 89 88 97 98 94 99 96 103 99 112 109 111 109 110 111 107 107 112 119 126 129 131 127 131 122 129 130 127 130 119 119 116 111 109 95
87 86 92 93 94 99 95 93 92 100 90 89 94 101 106 109 111 120 110 117 111 108 112 111 112 119 123 130 132 126 134 137 130 128 132 126 132 123 116 110 108 106 91 83
89 100 99 102 105 98 94 98 96 102 94 96 109 111 114 119 118 117 120 109 100 112 118 120 119 128 133 132 135 142 132 132 138 123 134 126 121 112 106 102 101 88 79 74
97 98 101 106 105 108 99 111 106 107 109 109 109 113 117 114 121 120 109 126 123 115 121 122 128 132 134 141 142 146 136 143 140 129 122 116 108 106 102 97 85 75 73 67
109 114 117 118 116 117 103 116 114 119 120 115 113 113 119 120 114 124 127 128 130 125 130 132 132 139 142 144 144 148 147 146 129 121 118 110 106 103 97 85 75 69 66 58
122 111 118 122 118 121 124 119 119 125 123 118 125 122 124 124 123 128 135 137 137 137 139 143 142 144 149 148 151 149 145 143 116 115 111 108 104 98 87 75 68 63 58 52
121 125 128 129 121 123 126 130 127 130 131 130 130 124 122 128 134 142 142 136 139 138 144 146 146 148 155 153 153 151 145 116 112 107 108 103 99 89 79 70 61 58 52 47
133 134 134 125 125 132 128 126 126 133 135 133 140 138 134 136 144 142 145 148 149 146 146 146 147 150 154 152 150 140 126 113 106 105 103 98 90 80 71 64 57 54 48 44
130 127 134 129 136 140 136 133 130 136 137 139 142 143 147 154 144 148 144 140 146 146 141 143 148 149 147 150 137 122 112 109 104 102 99 88 80 73 65 58 53 49 45 43
Wind_Direction
268 266 268 270 280 286 290 284 287 291 292 285 290 292 291 289 298 297 292 296 291 298 306 305 298 287 289 300 300 305 294 295 302 302 306 308 314 316 316 314 313 311 317 317
262 266 266 263 274 277 284 289 288 289 287 288 284 286 294 298 280 297 304 296 289 293 293 293 293 295 299 299 300 300 297 298 309 308 307 311 314 315 313 312 311 314 320 318
254 259 264 265 265 274 279 283 283 285 280 276 278 287 291 287 292 303 308 310 311 313 312 307 300 298 296 299 299 300 301 302 306 309 312 313 314 314 311 310 315 321 323 322
256 258 262 271 276 276 279 287 282 280 263 267 275 283 279 286 291 300 304 304 304 305 304 303 298 299 301 303 304 306 303 304 308 310 314 319 318 314 316 316 322 320 324 323
257 260 269 275 271 278 275 280 278 281 274 283 278 276 282 291 292 306 296 298 297 301 303 305 305 306 306 307 308 307 308 312 318 318 319 316 313 314 315 316 319 321 325 330
261 269 278 278 276 279 278 279 286 293 287 291 288 287 286 291 301 300 299 297 294 296 304 310 309 308 308 310 309 314 313 319 320 321 321 316 317 318 318 317 319 322 326 328
263 268 274 272 276 280 286 288 290 291 292 290 292 297 287 294 300 298 296 294 297 297 303 303 305 306 305 308 311 314 315 315 316 321 320 320 317 316 319 320 321 324 327 328
266 266 269 270 272 276 278 281 285 287 289 290 295 297 293 297 295 294 295 294 295 295 299 302 303 312 313 315 313 311 315 312 320 319 320 317 315 320 321 323 321 324 326 327
271 267 269 273 275 276 283 286 286 293 292 284 287 294 298 296 292 287 290 294 292 295 301 297 306 305 311 310 309 311 314 315 315 320 322 317 318 317 320 323 322 324 324 325
275 274 281 283 277 276 283 286 289 293 293 290 288 289 293 291 287 290 293 295 293 297 303 305 306 309 311 311 318 316 316 313 318 318 317 317 317 319 319 322 322 323 325 326
276 279 276 290 295 286 285 285 294 289 299 293 290 303 298 294 297 302 300 302 305 309 313 312 313 315 314 312 316 317 315 314 317 314 315 314 317 319 322 322 322 322 323 326
286 283 290 280 293 295 295 300 305 301 296 299 299 304 299 306 305 304 307 311 315 314 315 313 313 312 313 315 316 312 309 311 316 314 314 318 319 318 320 321 320 322 324 324
276 287 293 291 283 286 292 298 297 301 291 310 298 306 303 308 310 310 316 318 315 313 313 314 312 313 314 317 316 313 311 314 315 315 315 317 317 319 318 319 320 321 322 321
272 276 282 287 281 281 291 294 293 295 291 288 295 298 298 303 303 307 313 312 311 313 313 313 313 315 316 316 314 313 313 315 313 315 318 317 317 319 319 318 319 321 322 319
270 273 268 282 284 277 286 293 300 293 288 284 286 293 294 291 301 310 311 311 311 311 310 312 313 314 315 315 314 313 314 315 315 318 318 319 318 317 318 318 319 321 319 316
273 276 273 279 279 277 282 294 301 285 291 287 292 303 289 299 298 303 308 308 308 309 308 309 312 313 313 312 312 313 315 316 315 315 317 315 316 317 316 317 320 318 316 314
273 268 271 278 275 279 294 295 289 292 291 290 294 300 296 296 296 301 304 305 305 308 308 310 311 311 309 311 310 311 313 315 315 315 314 316 314 315 317 318 320 317 314 312
270 267 271 279 281 285 293 290 291 289 288 294 294 294 297 296 298 296 301 302 304 306 307 309 308 306 307 308 312 312 314 314 315 313 313 315 315 316 317 318 317 314 312 310
271 268 272 278 279 286 294 291 285 287 291 289 294 295 295 298 296 301 298 302 302 301 304 305 304 307 309 310 310 312 314 314 315 314 315 315 315 316 317 316 315 313 309 307
273 275 268 275 279 278 291 288 283 287 292 287 287 290 292 294 294 293 293 300 295 298 299 302 301 305 307 308 308 311 312 316 315 315 314 314 315 316 314 314 313 310 306 304
271 273 272 273 274 281 287 287 283 283 288 288 287 288 289 290 291 294 291 293 297 293 298 299 304 306 304 305 307 310 313 315 315 314 315 316 315 314 314 314 311 309 306 304
271 273 276 277 276 278 279 283 283 283 285 288 288 284 289 290 288 290 292 293 293 294 297 301 301 304 307 309 308 308 312 315 314 314 316 316 315 313 313 312 311 308 305 303
269 267 270 272 274 278 280 279 279 282 284 284 288 294 293 291 288 289 292 292 293 292 296 298 300 303 306 306 307 308 312 313 312 314 315 316 313 313 313 312 310 307 304 301
270 268 268 274 274 277 280 281 282 283 283 283 287 293 290 290 288 290 292 295 296 296 297 297 300 302 305 306 305 310 311 310 311 313 314 313 313 313 312 312 308 304 302 299
271 272 277 273 270 273 275 278 281 284 283 282 283 289 290 290 291 291 290 292 295 295 295 297 300 302 303 305 307 308 309 308 311 313 313 313 312 311 311 310 307 304 300 296
269 273 273 269 268 273 274 273 276 279 281 281 282 283 288 294 292 295 289 291 292 291 293 298 297 301 303 303 306 307 308 309 311 312 311 312 311 310 308 306 304 300 296 293
Height
10752 10751 10750 10750 10747 10746 10745 10745 10744 10744 10744 10743 10743 10740 10745 10745 10742 10739 10735 10737 10735 10732 10730 10727 10724 10721 10719 10715 10711 10708 10703 10697 10693 10687 10682 10678 10673 10666 10658 10651 10643 10636 10624 10610
10746 10745 10743 10744 10744 10742 10740 10739 10739 10739 10740 10738 10738 10736 10732 10736 10735 10734 10731 10731 10730 10726 10723 10722 10718 10713 10711 10708 10704 10700 10696 10692 10685 10680 10674 10669 10661 10653 10645 10637 10630 10620 10608 10594
10740 10738 10737 10737 10738 10738 10736 10736 10735 10734 10735 10732 10732 10731 10730 10729 10727 10724 10722 10720 10719 10717 10715 10713 10711 10708 10704 10699 10694 10690 10685 10680 10673 10667 10662 10655 10647 10638 10630 10622 10614 10601 10591 10575
10731 10731 10730 10730 10730 10729 10729 10728 10727 10727 10730 10728 10728 10725 10721 10723 10723 10720 10715 10712 10710 10709 10706 10704 10701 10698 10695 10689 10683 10678 10671 10665 10658 10651 10645 10637 10629 10620 10611 10603 10595 10585 10572 10559
10724 10722 10720 10721 10721 10719 10721 10719 10720 10720 10720 10720 10720 10724 10709 10712 10713 10712 10708 10705 10700 10697 10696 10694 10692 10688 10682 10676 10671 10665 10657 10649 10640 10631 10623 10615 10608 10599 10589 10581 10573 10563 10550 10537
10716 10713 10711 10713 10712 10710 10710 10710 10712 10712 10713 10714 10707 10715 10711 10702 10704 10701 10698 10693 10690 10689 10686 10684 10681 10676 10670 10663 10655 10647 10638 10630 10620 10611 10603 10596 10587 10577 10567 10555 10545 10536 10525 10513
10708 10704 10703 10704 10703 10703 10703 10701 10702 10704 10704 10705 10703 10706 10702 10697 10695 10691 10690 10685 10681 10678 10676 10672 10668 10664 10658 10652 10643 10633 10624 10615 10605 10595 10587 10575 10568 10557 10544 10529 10515 10501 10492 10485
10698 10696 10694 10695 10694 10694 10693 10692 10690 10694 10694 10694 10693 10698 10695 10690 10684 10681 10677 10676 10674 10671 10665 10661 10655 10650 10643 10635 10627 10617 10608 10599 10588 10578 10566 10554 10543 10532 10522 10510 10497 10482 10469 10456
10688 10688 10685 10685 10685 10684 10682 10680 10679 10681 10683 10685 10685 10684 10683 10679 10670 10667 10665 10664 10662 10660 10655 10650 10645 10636 10627 10618 10608 10598 10589 10577 10567 10556 10543 10535 10525 10518 10506 10492 10474 10460 10446 10435
10678 10680 10675 10675 10677 10675 10673 10672 10670 10668 10671 10672 10674 10675 10673 10666 10660 10657 10655 10653 10651 10648 10643 10636 10629 10621 10612 10602 10592 10582 10571 10561 10550 10540 10533 10523 10512 10496 10480 10464 10450 10437 10421 10408
10668 10667 10667 10664 10662 10662 10661 10662 10659 10656 10656 10656 10661 10666 10658 10650 10648 10647 10643 10640 10636 10631 10625 10618 10610 10601 10592 10583 10575 10564 10555 10544 10533 10525 10514 10505 10489 10471 10454 10439 10427 10414 10398 10381
10650 10655 10657 10655 10650 10647 10646 10646 10644 10642 10644 10643 10643 10657 10641 10635 10633 10629 10628 10624 10619 10612 10606 10598 10591 10582 10574 10564 10554 10545 10534 10523 10513 10503 10493 10480 10464 10447 10431 10415 10402 10384 10368 10353
10631 10640 10642 10642 10638 10634 10633 10631 10628 10624 10627 10629 10621 10636 10620 10619 10613 10607 10606 10602 10597 10592 10586 10579 10571 10563 10553 10542 10531 10521 10511 10502 10489 10477 10463 10450 10437 10424 10408 10390 10374 10359 10342 10326
10614 10621 10623 10626 10621 10620 10618 10617 10613 10607 10609 10608 10609 10607 10601 10594 10588 10587 10583 10577 10572 10566 10559 10552 10545 10537 10528 10517 10506 10496 10485 10474 10465 10454 10442 10428 10413 10399 10384 10367 10349 10335 10318 10301
10595 10603 10600 10606 10603 10601 10604 10607 10598 10591 10592 10585 10597 10588 10582 10571 10564 10564 10559 10552 10545 10539 10533 10525 10517 10510 10501 10492 10484 10473 10462 10452 10441 10430 10417 10402 10388 10374 10360 10344 10327 10311 10293 10276
10578 10580 10578 10589 10580 10579 10586 10598 10578 10576 10570 10562 10568 10580 10555 10555 10543 10542 10537 10531 10525 10518 10510 10502 10493 10483 10475 10467 10457 10448 10438 10426 10415 10401 10390 10377 10364 10348 10334 10318 10299 10285 10268 10252
10564 10562 10560 10566 10555 10554 10568 10582 10562 10554 10552 10542 10545 10553 10546 10534 10528 10524 10519 10507 10498 10492 10486 10477 10469 10461 10454 10445 10436 10424 10412 10402 10390 10379 10367 10356 10342 10327 10311 10292 10272 10253 10239 10223
10549 10548 10542 10541 10536 10528 10558 10552 10546 10537 10536 10527 10526 10527 10517 10510 10512 10508 10498 10488 10477 10469 10462 10455 10449 10440 10432 10421 10410 10401 10390 10378 10367 10352 10339 10324 10309 10298 10281 10267 10252 10236 10215 10198
10537 10532 10526 10519 10516 10517 10541 10528 10522 10514 10529 10516 10506 10501 10495 10488 10485 10485 10474 10465 10458 10449 10441 10433 10426 10418 10408 10397 10388 10375 10364 10354 10343 10329 10315 10299 10284 10269 10256 10242 10226 10212 10195 10180
10517 10516 10507 10504 10497 10496 10519 10511 10499 10492 10508 10505 10483 10482 10473 10466 10464 10457 10451 10447 10439 10431 10423 10414 10405 10396 10389 10378 10369 10356 10341 10329 10318 10303 10293 10277 10260 10242 10229 10217 10203 10188 10175 10163
10497 10494 10489 10484 10478 10480 10498 10488 10480 10476 10487 10481 10473 10466 10455 10444 10441 10432 10427 10422 10416 10409 10403 10396 10385 10375 10367 10355 10344 10330 10316 10303 10291 10276 10263 10249 10235 10218 10205 10193 10179 10166 10154 10144
10473 10473 10474 10468 10459 10462 10477 10461 10459 10455 10454 10453 10449 10443 10434 10423 10416 10412 10403 10397 10391 10382 10375 10369 10361 10349 10339 10330 10318 10307 10292 10280 10263 10249 10234 10222 10208 10195 10184 10170 10157 10147 10137 10129
10448 10453 10445 10446 10444 10447 10447 10442 10436 10432 10427 10426 10424 10417 10409 10399 10391 10384 10377 10373 10366 10358 10351 10344 10333 10324 10311 10300 10288 10280 10264 10254 10236 10223 10208 10198 10183 10172 10161 10149 10138 10129 10121 10114
10423 10423 10420 10416 10429 10423 10418 10412 10409 10407 10404 10399 10396 10390 10383 10376 10367 10358 10348 10341 10334 10327 10319 10312 10307 10296 10283 10273 10260 10251 10242 10228 10217 10203 10187 10177 10163 10151 10140 10129 10121 10113 10106 10100
10396 10395 10398 10395 10402 10394 10389 10388 10380 10379 10377 10370 10366 10360 10355 10347 10341 10337 10327 10317 10309 10302 10295 10287 10280 10269 10258 10249 10235 10225 10215 10202 10191 10178 10165 10154 10142 10131 10122 10112 10104 10096 10090 10086
10376 10372 10371 10371 10371 10364 10368 10362 10357 10351 10348 10343 10337 10332 10325 10320 10310 10305 10297 10290 10283 10276 10268 10263 10252 10247 10235 10221 10211 10204 10193 10179 10165 10153 10141 10134 10121 10112 10105 10098 10091 10084 10077 10072